Radiation Dose at Monitoring Post of Fukushima Daini Nuclear Power Station
Date,Time,MP-1(microSv/h),MP-2(microSv/h),MP-3(microSv/h),MP-4(microSv/h),MP-5(microSv/h),MP-6(microSv/h),MP-7(microSv/h),Wind Direction,Wind Velocity(m/s),Rain
2022/09/21,00:00,0.145,0.135,0.211,0.204,0.209,0.116,0.076,north-northwest,6.8,No
2022/09/21,00:10,0.145,0.136,0.213,0.205,0.208,0.115,0.075,north-northwest,6.9,No
2022/09/21,00:20,0.146,0.136,0.211,0.205,0.210,0.116,0.076,north-northwest,7.0,No
2022/09/21,00:30,0.146,0.135,0.211,0.206,0.209,0.116,0.075,north-northwest,6.8,No
2022/09/21,00:40,0.145,0.136,0.213,0.204,0.210,0.116,0.076,north-northwest,6.7,No
2022/09/21,00:50,0.146,0.135,0.213,0.206,0.209,0.115,0.075,north-northwest,6.4,No
2022/09/21,01:00,0.145,0.135,0.213,0.204,0.210,0.116,0.075,north-northwest,6.8,No
2022/09/21,01:10,0.146,0.136,0.212,0.206,0.209,0.116,0.075,north-northwest,7.5,No
2022/09/21,01:20,0.145,0.136,0.213,0.206,0.210,0.117,0.075,north-northwest,7.1,No
2022/09/21,01:30,0.146,0.136,0.211,0.206,0.210,0.116,0.075,north-northwest,6.9,Yes
2022/09/21,01:40,0.146,0.137,0.213,0.204,0.210,0.116,0.075,north-northwest,7.0,No
2022/09/21,01:50,0.146,0.136,0.212,0.205,0.210,0.115,0.075,north-northwest,6.9,Yes
2022/09/21,02:00,0.147,0.137,0.213,0.205,0.211,0.116,0.075,north-northwest,7.3,No
2022/09/21,02:10,0.146,0.136,0.213,0.205,0.210,0.116,0.075,north-northwest,7.4,Yes
2022/09/21,02:20,0.147,0.136,0.213,0.206,0.212,0.117,0.076,northwest,6.6,No
2022/09/21,02:30,0.147,0.136,0.213,0.205,0.209,0.116,0.075,northwest,6.0,Yes
2022/09/21,02:40,0.145,0.136,0.213,0.207,0.211,0.116,0.076,northwest,6.3,No
2022/09/21,02:50,0.147,0.136,0.212,0.206,0.210,0.116,0.075,north-northwest,6.2,No
2022/09/21,03:00,0.147,0.137,0.212,0.207,0.211,0.117,0.075,north-northwest,6.3,Yes
2022/09/21,03:10,0.146,0.137,0.213,0.206,0.210,0.116,0.075,north-northwest,6.1,Yes
2022/09/21,03:20,0.147,0.137,0.213,0.206,0.211,0.116,0.076,north-northwest,5.8,No
2022/09/21,03:30,0.147,0.136,0.214,0.206,0.209,0.116,0.075,north-northwest,6.6,No
2022/09/21,03:40,0.147,0.136,0.213,0.207,0.211,0.116,0.076,north-northwest,6.5,No
2022/09/21,03:50,0.147,0.137,0.214,0.205,0.209,0.116,0.076,north-northwest,6.4,No
2022/09/21,04:00,0.147,0.135,0.213,0.207,0.212,0.116,0.075,north-northwest,6.1,Yes
2022/09/21,04:10,0.147,0.137,0.214,0.206,0.209,0.116,0.076,north-northwest,6.3,No
2022/09/21,04:20,0.146,0.136,0.212,0.206,0.211,0.117,0.076,northwest,5.7,Yes
2022/09/21,04:30,0.147,0.137,0.214,0.206,0.209,0.116,0.075,northwest,6.4,Yes
2022/09/21,04:40,0.146,0.136,0.214,0.207,0.211,0.117,0.076,northwest,7.0,No
2022/09/21,04:50,0.147,0.137,0.212,0.205,0.209,0.116,0.076,northwest,7.1,Yes
2022/09/21,05:00,0.147,0.136,0.213,0.208,0.212,0.117,0.076,northwest,6.3,No
2022/09/21,05:10,0.147,0.137,0.213,0.207,0.210,0.116,0.076,northwest,6.6,No
2022/09/21,05:20,0.148,0.136,0.214,0.205,0.211,0.117,0.076,northwest,6.6,No
2022/09/21,05:30,0.146,0.137,0.214,0.206,0.210,0.116,0.075,north-northwest,6.6,No
2022/09/21,05:40,0.147,0.136,0.214,0.206,0.211,0.117,0.074,northwest,6.8,Yes
2022/09/21,05:50,0.147,0.137,0.213,0.207,0.211,0.117,0.076,northwest,6.8,No
2022/09/21,06:00,0.147,0.137,0.213,0.205,0.212,0.117,0.076,north-northwest,7.4,No
2022/09/21,06:10,0.147,0.135,0.212,0.207,0.210,0.116,0.076,northwest,6.6,No
2022/09/21,06:20,0.147,0.136,0.213,0.206,0.211,0.117,0.075,north-northwest,7.3,No
2022/09/21,06:30,0.146,0.135,0.213,0.208,0.210,0.116,0.076,north-northwest,7.0,No
2022/09/21,06:40,0.148,0.135,0.214,0.205,0.211,0.117,0.076,north-northwest,6.8,No
2022/09/21,06:50,0.147,0.136,0.212,0.207,0.209,0.116,0.075,north-northwest,5.6,No
2022/09/21,07:00,0.146,0.137,0.214,0.204,0.212,0.117,0.075,north-northwest,5.4,No
2022/09/21,07:10,0.147,0.136,0.213,0.206,0.208,0.118,0.076,north-northwest,5.8,No
2022/09/21,07:20,0.148,0.136,0.215,0.206,0.212,0.116,0.075,north-northwest,5.7,No
2022/09/21,07:30,0.147,0.137,0.213,0.205,0.209,0.117,0.076,north-northwest,4.7,No
2022/09/21,07:40,0.147,0.137,0.214,0.206,0.212,0.116,0.075,north-northwest,3.8,No
2022/09/21,07:50,0.147,0.137,0.213,0.206,0.210,0.118,0.075,north-northwest,5.5,No
2022/09/21,08:00,0.147,0.136,0.214,0.207,0.210,0.117,0.076,north-northwest,5.8,No
2022/09/21,08:10,0.147,0.136,0.215,0.204,0.212,0.117,0.075,north,4.9,No
2022/09/21,08:20,0.147,0.136,0.215,0.207,0.208,0.117,0.076,north-northwest,5.7,No
2022/09/21,08:30,0.147,0.137,0.214,0.206,0.210,0.116,0.075,north,5.2,No
2022/09/21,08:40,0.147,0.136,0.213,0.207,0.210,0.117,0.076,north,4.0,No
2022/09/21,08:50,0.148,0.138,0.213,0.207,0.211,0.116,0.075,north-northwest,5.2,No
2022/09/21,09:00,0.146,0.136,0.213,0.206,0.210,0.117,0.075,north-northwest,5.1,No
2022/09/21,09:10,0.148,0.136,0.215,0.207,0.209,0.117,0.076,north-northwest,4.5,No
2022/09/21,09:20,0.147,0.137,0.214,0.206,0.212,0.116,0.075,north,4.7,No
2022/09/21,09:30,0.147,0.136,0.215,0.207,0.210,0.118,0.075,north,4.5,No
2022/09/21,09:40,0.147,0.136,0.214,0.206,0.211,0.116,0.075,north-northwest,5.1,No
2022/09/21,09:50,0.146,0.136,0.213,0.205,0.212,0.117,0.075,north,4.6,No
2022/09/21,10:00,0.148,0.136,0.214,0.207,0.209,0.117,0.075,north,4.9,No
2022/09/21,10:10,0.146,0.137,0.213,0.206,0.209,0.116,0.076,north,6.1,No
2022/09/21,10:20,0.147,0.135,0.214,0.206,0.211,0.116,0.075,north-northeast,6.4,No
2022/09/21,10:30,0.147,0.137,0.215,0.208,0.209,0.117,0.076,north-northeast,6.7,No
2022/09/21,10:40,0.147,0.137,0.213,0.207,0.208,0.117,0.075,north,5.2,No
2022/09/21,10:50,0.148,0.135,0.213,0.205,0.211,0.116,0.076,north,4.6,No
2022/09/21,11:00,0.147,0.138,0.215,0.207,0.211,0.117,0.075,north,4.6,No
2022/09/21,11:10,0.147,0.136,0.214,0.207,0.210,0.117,0.076,north-northeast,5.4,No
2022/09/21,11:20,0.148,0.135,0.214,0.205,0.208,0.117,0.076,north-northeast,4.3,No
2022/09/21,11:30,0.146,0.138,0.216,0.206,0.212,0.117,0.075,north-northeast,5.2,No
2022/09/21,11:40,0.148,0.137,0.215,0.209,0.211,0.117,0.076,north,5.0,No
2022/09/21,11:50,0.149,0.137,0.213,0.208,0.210,0.117,0.075,north,5.5,No
2022/09/21,12:00,0.147,0.138,0.213,0.206,0.209,0.118,0.076,north,6.4,No
2022/09/21,12:10,0.145,0.136,0.216,0.205,0.209,0.117,0.075,north,5.4,No
2022/09/21,12:20,0.148,0.136,0.216,0.208,0.209,0.117,0.076,north-northeast,6.7,No
2022/09/21,12:30,0.147,0.136,0.214,0.208,0.211,0.117,0.076,north-northeast,6.8,No
2022/09/21,12:40,0.146,0.138,0.214,0.208,0.213,0.117,0.076,north-northeast,7.5,No
2022/09/21,12:50,0.147,0.136,0.216,0.205,0.211,0.117,0.076,north-northeast,7.7,No
2022/09/21,13:00,0.148,0.136,0.216,0.206,0.209,0.118,0.076,north,6.4,No
2022/09/21,13:10,0.147,0.137,0.214,0.208,0.209,0.118,0.076,north-northeast,6.9,No
2022/09/21,13:20,0.147,0.137,0.212,0.209,0.209,0.118,0.075,north,7.6,No
2022/09/21,13:30,0.148,0.136,0.215,0.209,0.208,0.117,0.076,north,6.9,No
2022/09/21,13:40,0.148,0.138,0.216,0.206,0.213,0.117,0.076,north,5.8,No
2022/09/21,13:50,0.147,0.137,0.215,0.207,0.213,0.119,0.075,north,6.0,No
2022/09/21,14:00,0.149,0.136,0.215,0.210,0.210,0.119,0.076,north,6.8,No
2022/09/21,14:10,0.148,0.138,0.217,0.208,0.210,0.118,0.076,north,7.2,No
2022/09/21,14:20,0.148,0.137,0.215,0.208,0.214,0.117,0.075,north,6.9,No
2022/09/21,14:30,0.149,0.138,0.218,0.209,0.211,0.119,0.076,north,5.0,No
2022/09/21,14:40,0.148,0.137,0.216,0.207,0.210,0.118,0.076,north,5.5,No
2022/09/21,14:50,0.150,0.137,0.216,0.209,0.213,0.118,0.075,north,5.7,No
2022/09/21,15:00,0.148,0.139,0.217,0.209,0.211,0.118,0.076,north,5.0,No
2022/09/21,15:10,0.149,0.136,0.215,0.208,0.211,0.118,0.077,north,5.6,No
2022/09/21,15:20,0.149,0.138,0.217,0.210,0.213,0.118,0.077,north,4.4,No
2022/09/21,15:30,0.148,0.137,0.215,0.208,0.210,0.118,0.076,north,5.5,No
2022/09/21,15:40,0.149,0.138,0.218,0.209,0.212,0.118,0.076,north-northwest,2.2,No
2022/09/21,15:50,0.148,0.138,0.216,0.208,0.211,0.118,0.076,northwest,2.2,No
2022/09/21,16:00,0.150,0.138,0.218,0.211,0.211,0.119,0.075,north,3.8,No
2022/09/21,16:10,0.147,0.138,0.217,0.207,0.212,0.117,0.076,north-northwest,3.1,No
2022/09/21,16:20,0.149,0.138,0.217,0.209,0.211,0.119,0.076,north-northwest,4.2,No
2022/09/21,16:30,0.149,0.137,0.216,0.208,0.209,0.119,0.076,north-northwest,4.2,No
2022/09/21,16:40,0.147,0.137,0.217,0.209,0.212,0.118,0.076,north,4.4,No
2022/09/21,16:50,0.149,0.138,0.216,0.208,0.211,0.118,0.075,west-northwest,1.7,No
2022/09/21,17:00,0.148,0.137,0.218,0.209,0.210,0.118,0.076,west-northwest,2.1,No
2022/09/21,17:10,0.149,0.139,0.216,0.209,0.212,0.118,0.076,north-northwest,3.6,No
2022/09/21,17:20,0.148,0.138,0.217,0.209,0.212,0.118,0.076,north-northwest,5.8,No
2022/09/21,17:30,0.150,0.138,0.217,0.210,0.213,0.118,0.075,north-northwest,6.8,No
2022/09/21,17:40,0.148,0.138,0.218,0.209,0.211,0.118,0.076,north-northwest,6.5,No
2022/09/21,17:50,0.150,0.138,0.217,0.210,0.213,0.119,0.076,north-northwest,6.1,No
2022/09/21,18:00,0.148,0.138,0.218,0.209,0.211,0.118,0.076,north-northwest,5.7,No
2022/09/21,18:10,0.149,0.138,0.216,0.208,0.213,0.119,0.075,northwest,5.4,No
2022/09/21,18:20,0.149,0.138,0.217,0.210,0.211,0.118,0.076,north-northwest,4.8,No
2022/09/21,18:30,0.149,0.138,0.218,0.209,0.213,0.120,0.075,north-northwest,4.9,No
2022/09/21,18:40,0.148,0.139,0.217,0.210,0.212,0.118,0.077,northwest,4.7,No
2022/09/21,18:50,0.150,0.138,0.218,0.210,0.213,0.120,0.077,north-northwest,4.7,No
2022/09/21,19:00,0.148,0.137,0.217,0.210,0.212,0.118,0.076,north-northwest,5.0,No
2022/09/21,19:10,0.150,0.138,0.218,0.209,0.212,0.119,0.077,north-northwest,5.6,No
2022/09/21,19:20,0.148,0.138,0.216,0.209,0.212,0.118,0.076,north-northwest,5.7,No
2022/09/21,19:30,0.148,0.139,0.216,0.210,0.212,0.118,0.076,north-northwest,5.8,No
2022/09/21,19:40,0.149,0.138,0.217,0.209,0.212,0.119,0.076,north-northwest,6.0,No
2022/09/21,19:50,0.149,0.138,0.218,0.210,0.212,0.119,0.075,north-northwest,5.7,No
2022/09/21,20:00,0.148,0.139,0.217,0.210,0.214,0.119,0.077,north-northwest,6.1,No
2022/09/21,20:10,0.149,0.137,0.217,0.209,0.211,0.119,0.077,northwest,6.4,No
2022/09/21,20:20,0.148,0.139,0.216,0.210,0.214,0.118,0.076,northwest,6.3,No
2022/09/21,20:30,0.150,0.137,0.217,0.209,0.212,0.118,0.076,north-northwest,6.2,No
2022/09/21,20:40,0.148,0.139,0.217,0.209,0.213,0.118,0.076,north-northwest,6.1,No
2022/09/21,20:50,0.149,0.138,0.216,0.209,0.213,0.120,0.076,north-northwest,6.3,No
2022/09/21,21:00,0.149,0.138,0.217,0.209,0.212,0.119,0.077,north-northwest,6.2,No
2022/09/21,21:10,0.148,0.139,0.216,0.211,0.212,0.120,0.076,north-northwest,6.6,No
2022/09/21,21:20,0.150,0.138,0.217,0.208,0.211,0.118,0.076,north-northwest,6.3,No
2022/09/21,21:30,0.148,0.138,0.216,0.210,0.213,0.119,0.077,north-northwest,7.0,No
2022/09/21,21:40,0.150,0.137,0.216,0.208,0.212,0.118,0.076,north-northwest,7.1,No
2022/09/21,21:50,0.149,0.138,0.217,0.210,0.213,0.118,0.076,north-northwest,7.4,No
2022/09/21,22:00,0.149,0.138,0.217,0.210,0.212,0.118,0.076,north-northwest,7.8,No
2022/09/21,22:10,0.149,0.138,0.217,0.208,0.211,0.118,0.076,north-northwest,7.7,No
2022/09/21,22:20,0.149,0.138,0.218,0.211,0.213,0.118,0.076,north-northwest,7.6,No
2022/09/21,22:30,0.150,0.139,0.217,0.210,0.212,0.119,0.076,north-northwest,7.5,No
2022/09/21,22:40,0.148,0.137,0.217,0.209,0.213,0.118,0.076,north-northwest,7.9,No
2022/09/21,22:50,0.149,0.138,0.218,0.209,0.212,0.120,0.076,north-northwest,7.8,No
2022/09/21,23:00,0.148,0.139,0.216,0.209,0.213,0.119,0.076,north-northwest,7.6,No
2022/09/21,23:10,0.149,0.137,0.217,0.210,0.212,0.119,0.077,north-northwest,8.1,No
2022/09/21,23:20,0.148,0.139,0.217,0.209,0.212,0.119,0.077,north-northwest,8.2,No
2022/09/21,23:30,0.150,0.138,0.215,0.209,0.214,0.119,0.077,north-northwest,8.4,No
2022/09/21,23:40,0.150,0.138,0.217,0.209,0.212,0.119,0.076,north-northwest,7.2,No
2022/09/21,23:50,0.150,0.139,0.217,0.208,0.213,0.119,0.076,north-northwest,7.4,No
